This is the latest recevied weather packets stored in our database for station/object AC2VK-1. If no packets are shown the sender has not sent any weather packets the latest 10 day(s).
| Time | Temp. | Humidity | Pressure | Rain* | Wind** | Luminosity | Snow |
|---|---|---|---|---|---|---|---|
| 1777823362 | 12.78° C | 52% | 1023.8 hPa | 0 mm | - | - | - |
| 1777822762 | 12.78° C | 54% | 1024 hPa | 0 mm | - | - | - |
| 1777822162 | 12.78° C | 51% | 1024 hPa | 0 mm | - | - | - |
| 1777821562 | 12.78° C | 53% | 1024 hPa | 0 mm | - | - | - |
| 1777820962 | 12.78° C | 51% | 1024.1 hPa | 0 mm | - | - | - |
| 1777820362 | 12.78° C | 51% | 1024.2 hPa | 0 mm | - | - | - |
| 1777819762 | 11.67° C | 53% | 1024.1 hPa | 0 mm | - | - | - |
| 1777819162 | 12.22° C | 51% | 1024.2 hPa | 0 mm | - | - | - |
| 1777818562 | 12.78° C | 57% | 1024.1 hPa | 0 mm | - | - | - |
| 1777817962 | 12.78° C | 57% | 1024.1 hPa | 0 mm | - | - | - |
| 1777817362 | 12.22° C | 57% | 1024.1 hPa | 0 mm | - | - | - |
| 1777816762 | 11.67° C | 59% | 1024.1 hPa | 0 mm | - | - | - |
| 1777816163 | 11.67° C | 63% | 1024.1 hPa | 0 mm | - | - | - |
| 1777815563 | 11.11° C | 66% | 1023.9 hPa | 0 mm | - | - | - |
| 1777814963 | 10.56° C | 69% | 1023.9 hPa | 0 mm | - | - | - |
| 1777814363 | 10° C | 67% | 1023.8 hPa | 0 mm | - | - | - |
| 1777813763 | 10° C | 70% | 1023.9 hPa | 0 mm | - | - | - |
| 1777813163 | 9.44° C | 73% | 1023.9 hPa | 0 mm | - | - | - |
| 1777812563 | 8.89° C | 75% | 1023.9 hPa | 0 mm | - | - | - |
| 1777811963 | 8.33° C | 76% | 1023.9 hPa | 0 mm | - | - | - |
| 1777811363 | 7.78° C | 77% | 1023.9 hPa | 0 mm | - | - | - |
| 1777810763 | 7.78° C | 78% | 1023.7 hPa | 0 mm | - | - | - |
| 1777810163 | 7.22° C | 80% | 1023.6 hPa | 0 mm | - | - | - |
| 1777809563 | 6.67° C | 83% | 1023.4 hPa | 0 mm | - | - | - |
| 1777808963 | 6.11° C | 84% | 1023.3 hPa | 0 mm | - | - | - |
* Rain latest hour (hover to see other rain measurements)
** Current wind speed in m/s (hover to see current wind gust speed)